sat.trackr.live / text

‹ back to catalog

STARLINK-5308

NORAD 55300 · 2023-010AH

PAYLOAD ACTIVE UNKNOWN

§ Identity

Operator
Country
US
Launch date
2023-01-19
Launch site
AFWTR
Launch vehicle
Mass (kg)
RCS (m²)

Purposes: comms

External: N2YO · Heavens-Above · Gunter

§ Orbital elements

Epoch: 2026-09-20T16:44:59.738496Z

Period
96.11 min
Inclination
69.9981°
Eccentricity
0.0003619
Mean motion
14.98330349 rev/d
Perigee alt
569.5 km
Apogee alt
574.6 km
Semi-major
6,950.2 km
B*
1.1164e-5
RAAN
252.5979°
Arg perigee
269.6101°
Mean anomaly
90.4643°
Rev number
20,248

§ Raw data

STARLINK-53081 55300U 23010AH  26263.69791364  .00000040  00000+0  11164-4 0  99932 55300  69.9981 252.5979 0003619 269.6101  90.4643 14.98330349202486

JSON: /api/v1/satellites/55300 · /tle

For live sub-satellite position, see the globe view (requires WebGL).

§ Visibility from observer

Set your observer location to see the next 7 days of passes ≥ 10°. The values pass through the URL so the page stays shareable.

No JS? Fill the form by hand. The geolocation button needs JavaScript.